Weather History for Covington, KY

Change the Weather History Date:

Thursday, December 6, 2012

  Actual Average Record
Temperature  
Mean Temperature 39 °F 37 °F  
Max Temperature 49 °F 44 °F 73 °F (1998)
Min Temperature 29 °F 29 °F -3 °F (1977)
Degree Days  
Heating Degree Days 26 28  
Month to date heating degree days 83 164  
Since 1 July heating degree days 1189 1124  
Cooling Degree Days 0 0  
Month to date cooling degree days 0 0  
Year to date cooling degree days 1439 1121  
Moisture  
Dew Point 35 °F    
Average Humidity 81    
Maximum Humidity 100    
Minimum Humidity 61    
Precipitation  
Precipitation 0.02 in 0.11 in 1.27 in (1957)
Month to date precipitation 1.02 0.66  
Year to date precipitation 34.05 39.81  
Snow  
Snow 0.00 in 0.10 in 3.60 in (1977)
Month to date snowfall 0.0 0.6  
Since 1 July snowfall T 1.4  
Snow Depth 0.00 in    
Sea Level Pressure  
Sea Level Pressure 30.11 in    
Wind  
Wind Speed 6 mph (SE)    
Max Wind Speed 12 mph    
Max Gust Speed 14 mph    
Visibility 9 miles    
Events Rain    
T = Trace of Precipitation, MM = Missing Value Source: NWS Daily Summary

Daily Weather History Graph

Daily Weather History Graph

Search for Another Location

Airport:

Trip Planner

Search our weather history database for the weather conditions in past years. The results will help you decide how hot, cold, wet, or windy it might be!

Date:

Astronomy

Dec. 06, 2012 Rise Set
Actual Time 7:43 AM EST 5:16 PM EST
Civil Twilight 7:14 AM EST 5:45 PM EST
Nautical Twilight 6:40 AM EST 6:19 PM EST
Astronomical Twilight 6:08 AM EST 6:51 PM EST
Moon 12:02 AM EST (12/6) 12:38 PM EST (12/6)
Length of Visible Light 10h 31m
Length of Day
9h 32m
Waning Gibbous, 49% of the Moon is Illuminated
Dec 6
Waning Gibbous
Dec 13
New
Dec 20
First Quarter
Dec 28
Full
Jan 4
Last Quarter

Hourly Weather History & Observations

Time (EST) Temp. Windchill Dew Point Humidity Pressure Visibility Wind Dir Wind Speed Gust Speed Precip Events Conditions
12:52 AM 33.1 °F 24.9 °F 26.1 °F 75% 30.27 in 10.0 mi ENE 10.4 mph - N/A   Mostly Cloudy
1:52 AM 30.9 °F 24.3 °F 26.1 °F 82% 30.26 in 10.0 mi East 6.9 mph - N/A   Scattered Clouds
2:52 AM 30.0 °F 22.4 °F 26.1 °F 85% 30.25 in 10.0 mi East 8.1 mph - N/A   Partly Cloudy
3:52 AM 30.0 °F 22.4 °F 26.1 °F 85% 30.22 in 10.0 mi East 8.1 mph - N/A   Mostly Cloudy
4:52 AM 30.0 °F 25.2 °F 26.1 °F 85% 30.21 in 10.0 mi East 4.6 mph - N/A   Partly Cloudy
5:52 AM 30.9 °F 25.2 °F 26.1 °F 82% 30.21 in 10.0 mi ENE 5.8 mph - N/A   Scattered Clouds
6:52 AM 30.0 °F 23.2 °F 25.0 °F 82% 30.22 in 10.0 mi East 6.9 mph - N/A   Partly Cloudy
7:52 AM 28.9 °F 22.8 °F 25.0 °F 85% 30.21 in 7.0 mi ENE 5.8 mph - N/A   Scattered Clouds
8:52 AM 32.0 °F 25.6 °F 27.0 °F 82% 30.20 in 9.0 mi East 6.9 mph - N/A   Mostly Cloudy
9:52 AM 35.1 °F 28.6 °F 28.9 °F 78% 30.19 in 10.0 mi East 8.1 mph - N/A   Mostly Cloudy
10:52 AM 37.9 °F 34.4 °F 30.9 °F 76% 30.19 in 10.0 mi SE 4.6 mph - N/A   Mostly Cloudy
11:52 AM 42.1 °F 38.4 °F 33.1 °F 70% 30.14 in 10.0 mi ESE 5.8 mph - N/A   Mostly Cloudy
12:52 PM 45.0 °F 41.2 °F 35.1 °F 68% 30.11 in 10.0 mi SE 6.9 mph - N/A   Overcast
1:52 PM 46.9 °F - 35.1 °F 63% 30.07 in 10.0 mi ESE 5.8 mph - N/A   Overcast
2:52 PM 48.0 °F - 36.0 °F 63% 30.05 in 10.0 mi SSE 8.1 mph - N/A   Overcast
3:52 PM 48.0 °F - 37.0 °F 66% 30.05 in 10.0 mi South 4.6 mph - N/A   Overcast
4:52 PM 46.9 °F - 37.0 °F 68% 30.04 in 10.0 mi South 6.9 mph - N/A   Overcast
5:52 PM 46.9 °F - 37.0 °F 68% 30.03 in 10.0 mi SSE 6.9 mph - N/A   Overcast
6:13 PM 46.4 °F 44.3 °F 37.4 °F 71% 30.02 in 10.0 mi SSE 4.6 mph - N/A   Overcast
6:42 PM 46.4 °F 41.9 °F 39.2 °F 76% 30.02 in 9.0 mi South 9.2 mph - 0.00 in Rain Light Rain
6:52 PM 46.9 °F - 41.0 °F 80% 30.04 in 7.0 mi South 6.9 mph - 0.00 in Rain Light Rain
7:52 PM 46.0 °F - 44.1 °F 93% 30.04 in 9.0 mi Calm Calm - 0.00 in   Overcast
8:10 PM 46.4 °F - 42.8 °F 87% 30.01 in 9.0 mi Calm Calm - 0.00 in   Light Drizzle
8:24 PM 46.4 °F - 44.6 °F 93% 30.01 in 6.0 mi Calm Calm - 0.01 in   Light Drizzle
8:52 PM 46.0 °F - 44.1 °F 93% 30.01 in 9.0 mi Calm Calm - 0.02 in   Overcast
9:13 PM 46.4 °F 44.3 °F 44.6 °F 93% 30.00 in 8.0 mi ESE 4.6 mph - N/A   Overcast
9:52 PM 46.9 °F - 45.0 °F 93% 30.00 in 6.0 mi SE 5.8 mph - 0.00 in   Light Drizzle
10:52 PM 46.9 °F - 46.9 °F 100% 29.99 in 5.0 mi South 3.5 mph - 0.00 in   Light Drizzle
11:52 PM 48.9 °F - 46.9 °F 93% 29.98 in 6.0 mi South 6.9 mph - 0.00 in Rain Light Rain